SCP
0 0 0 0 0 0 0 0 0 0 0 0 0 0 0 0 0 0 0 0 0 0 0 0 0 -0 -0 -0 -0 -0 0 0 -0 -0 -0 0 0 0 0 0 0 0 -0 -0 0
0 0 0 0 0 0 0 0 0 0 0 0 0 0 0 0 0 -0 0 0 0 0 0 0 -0 0 0 -0 -0 0 0 0 -0 -0 -0 -0 -0 0 0 0 0 -0 -0 -0 0
0 0 0 0 0 0 0 0 0 0 0 0 0 0 0 0 0 0 0 0 0 0 0 0 0 0 0 0 0 0 0 -0 0 -0 -0 -0 -0 0 0 0 -0 -0 -0 -0 0
0 0 0 0 0 0 0 0 0 0 0 0 0 0 0 0 0 0 0 0 0 0 0 0 0 0 0 -0 0 0 -0 0 -0 -0 -0 -0 -0 0 0 0 -0 -0 -0 -0 0
0 0 0 0 0 0 0 0 0 0 0 0 0 0 0 0 0 0 0 0 0 -0 0 0 0 0 0 -0 -0 0 -0 -0 -0 -0 -0 -0 0 0 0 0 0 -0 -0 -0 0
0 0 0 0 0 0 0 0 0 0 0 0 0 0 0 0 0 -0 -0 0 0 -0 0 0 0 0 0 0 -0 0 -0 0 -0 -0 -0 -0 -0 0 0 0 -0 0 0 0 0
0 0 0 0 0 0 0 0 0 0 0 0 0 0 0 0 0 -0 0 0 0 -0 0 0 -0 0 0 0 0 0 -0 0 -0 -0 -0 -0 -0 0 0 0 -0 0 0 0 0
-0 0 0 0 0 0 0 0 0 0 -0 -0 0 0 0 0 0 0 0 0 0 0 0 -0 0 0 0 0 0 -0 0 0 -0 -0 -0 -0 -0 0 0 0 0 -0 0 0 -0
0 -0 -0 0 0 0 0 0 0 0 -0 0 0 0 0 0 0 -0 -0 0 0 0 0 0 0 0 0 0 0 0 0 -0 0 -0 -0 0 -0 0 0 0 -0 -0 -0 0 -0
0 0 0 0 0 0 -0 -0 -0 0 -0 -0 0 0 -0 0 0 0 0 0 0 0 0 0 0 0 0 0 0 0 -0 -0 0 -0 -0 0 0 0 -0 0 -0 -0 0 0 0
0 -0 -0 -0 0 -0 -0 0 0 -0 -0 0 0 0 0 -0 0 0 0 0 0 0 0 0 0 0 0 0 0 0 0 0 0 0 -0 0 0 -0 0 0 -0 0 0 0 0
-0 -0 -0 -0 -0 -0 -0 0 0 0 0 0 0 -0 -0 0 0 0 0 0 0 0 0 0 0 0 0 -0 0 0 0 0 0 0 0 0 0 0 0 0 0 -0 0 0 0
-0 0 0 -0 -0 -0 0 0 0 -0 0 0 0 0 0 0 -0 0 0 -0 0 0 0 0 0 0 0 0 0 0 0 0 0 0 0 0 0 0 0 0 -0 0 0 0 0
-0 -0 -0 0 0 0 0 0 -0 0 -0 0 0 -0 0 -0 -0 0 0 -0 0 0 0 0 0 -0 0 0 0 0 0 0 0 0 -0 -0 0 -0 -0 -0 0 0 0 -0 -0
-0 -0 0 -0 0 -0 0 -0 0 -0 -0 0 0 0 0 -0 -0 0 0 0 0 0 0 0 0 0 0 0 0 0 0 -0 0 -0 0 0 -0 0 0 -0 -0 -0 -0 0 -0
-0 -0 -0 0 0 -0 -0 -0 -0 0 0 0 0 0 -0 -0 0 0 0 0 0 0 0 0 0 0 0 0 0 0 0 0 0 0 0 0 -0 -0 0 0 0 -0 -0 0 0
-0 -0 0 -0 -0 -0 -0 -0 -0 -0 0 0 -0 0 -0 -0 0 0 0 0 0 0 0 0 0 0 0 0 0 0 0 0 0 0 0 0 -0 0 0 0 0 0 0 0 0
-0 -0 -0 -0 -0 -0 -0 -0 -0 -0 0 -0 0 -0 0 0 0 0 0 0 0 0 0 0 0 0 0 0 0 0 0 0 0 0 0 0 0 0 0 0 0 0 0 0 0
-0 -0 -0 -0 -0 0 -0 0 0 0 -0 0 0 0 0 0 0 0 0 0 -0 0 0 0 0 0 0 0 0 0 0 0 -0 0 0 1 0 0 0 0 0 0 0 0 0
0 -0 -0 0 0 -0 0 0 -0 0 0 0 0 0 0 -0 -0 0 0 0 0 0 0 0 0 0 0 0 0 0 0 0 0 0 0 0 0 0 0 0 0 0 0 0 0
-0 -0 -0 0 0 -0 0 0 0 0 0 0 0 0 0 0 -0 0 0 0 0 0 0 0 0 0 0 0 0 0 0 0 0 0 0 0 0 0 0 0 0 0 0 0 0
-0 -0 -0 -0 -0 0 -0 -0 0 0 0 0 -0 -0 0 0 0 0 0 0 0 0 0 0 0 0 0 -0 0 0 0 0 0 0 0 0 0 0 0 0 0 0 0 0 0
-0 -0 -0 -0 -0 -0 0 -0 0 0 0 0 0 0 -0 0 0 0 0 0 0 0 0 0 0 0 0 0 0 0 0 0 0 0 0 0 0 0 0 0 0 0 0 0 0
0 -0 0 0 -0 -0 -0 -0 -0 0 0 0 0 0 0 0 0 0 -0 0 0 0 0 0 0 0 0 0 0 0 0 0 0 0 0 0 0 0 0 0 0 0 0 0 0
0 0 0 0 -0 -0 -0 0 -0 0 -0 0 -0 0 -0 0 0 0 0 0 0 0 0 0 0 0 -0 0 0 0 0 0 0 0 0 -0 -0 0 0 0 0 0 0 0 0
0 0 0 0 0 0 0 0 -0 -0 -0 -0 0 0 0 0 0 0 0 0 -0 0 0 0 0 0 0 0 0 0 0 0 0 0 0 -0 -0 0 0 0 0 0 0 0 0
0 0 0 0 0 0 0 0 0 0 0 -0 0 0 0 0 0 0 0 0 0 0 0 0 0 0 0 0 0 0 0 0 0 0 0 -0 -0 0 0 0 0 0 0 0 0
Wind_Speed_500mb
27 27 27 27 27 27 27 23 20 21 24 23 19 19 22 22 22 23 31 24 25 16 31 21 28 30 31 33 38 34 2 7 7 17 25 14 8 8 12 24 21 11 61 67 60
26 25 26 26 25 27 26 25 23 19 22 22 20 18 19 22 25 36 29 27 35 23 33 33 34 34 35 37 39 12 8 10 12 15 31 28 25 14 9 23 22 56 61 65 59
29 26 23 21 23 25 25 26 23 20 19 19 18 17 14 15 20 17 28 24 30 30 32 30 27 32 38 37 34 26 11 4 16 26 48 40 30 11 12 9 37 64 69 63 57
32 29 25 22 20 21 25 26 25 21 17 14 16 15 11 9 5 1 8 30 26 31 33 32 35 35 33 34 33 11 17 9 36 26 40 34 32 26 19 5 54 61 61 61 54
32 31 28 25 23 21 23 27 24 18 15 12 13 11 9 14 30 13 14 22 31 40 35 37 37 35 31 31 26 11 8 34 32 40 35 31 27 25 13 17 28 54 56 56 50
30 29 27 25 24 24 25 26 22 13 11 10 11 10 9 21 3 16 13 23 35 42 32 37 29 33 37 36 28 16 37 29 42 37 40 34 22 11 6 16 36 51 56 53 48
31 30 27 24 23 23 23 20 15 10 8 9 10 10 15 30 4 6 18 27 35 36 32 32 29 31 17 32 30 19 23 26 47 37 42 44 22 14 14 17 55 60 59 53 48
29 28 25 24 20 18 16 14 10 6 7 9 9 10 17 16 14 15 19 26 32 28 28 27 25 25 36 28 25 36 27 21 50 42 31 30 22 4 17 23 53 63 60 54 48
31 26 22 19 14 12 9 9 3 5 6 10 10 12 20 15 23 22 26 30 32 28 24 23 18 29 32 31 23 25 30 28 29 41 34 2 27 16 24 30 48 65 59 54 48
28 21 18 14 6 5 5 8 11 14 9 13 4 16 33 22 28 28 25 27 30 28 24 18 20 25 30 26 28 35 41 35 31 35 34 30 23 23 34 24 42 59 58 54 48
24 18 11 8 5 5 4 9 5 6 25 23 12 25 15 27 31 28 30 30 31 29 26 34 23 30 39 40 41 41 35 22 14 45 36 26 31 30 33 33 35 52 57 55 54
24 15 7 6 5 4 8 13 11 13 13 41 15 27 17 40 31 30 30 30 34 31 33 22 33 33 40 36 46 46 25 21 26 45 40 32 22 16 20 25 38 50 52 51 52
25 15 6 9 3 6 11 21 11 12 16 33 28 26 15 22 30 38 39 42 32 34 35 35 27 38 34 38 43 43 34 24 23 33 37 32 12 19 16 45 57 42 53 49 51
23 12 7 8 11 16 21 10 12 11 13 31 26 32 31 33 34 38 40 41 23 33 37 37 34 35 33 34 36 33 33 38 44 36 17 26 9 30 38 52 34 51 47 51 46
18 12 5 7 8 17 11 13 16 8 11 24 28 16 24 39 30 31 37 46 34 31 29 36 29 32 34 36 25 35 22 29 38 26 40 39 12 9 5 26 38 56 47 45 54
12 13 6 5 14 9 17 15 9 13 2 12 20 18 29 39 23 40 35 46 34 29 37 30 37 23 23 29 24 42 24 18 12 18 23 42 28 16 7 15 18 50 48 43 43
15 16 15 13 14 11 11 13 13 12 3 13 25 26 30 31 26 28 32 30 26 22 32 33 35 24 30 34 35 30 26 15 20 18 24 41 22 13 28 19 22 27 23 9 24
21 24 22 12 14 14 11 21 13 36 20 26 30 31 29 33 25 25 25 28 37 35 22 26 28 35 26 28 20 25 37 20 29 25 24 36 23 19 38 35 32 16 11 13 24
26 20 21 11 9 9 21 11 11 20 41 9 15 18 23 27 26 28 40 21 35 18 9 27 30 30 13 32 2 32 35 37 30 39 26 18 29 25 37 32 30 15 16 18 17
28 27 42 10 12 12 9 8 27 18 12 16 21 12 12 27 38 18 16 11 21 11 3 26 22 30 20 11 19 29 18 33 27 29 29 22 27 26 32 28 25 25 24 23 26
33 21 24 5 10 21 9 14 7 7 11 13 24 14 12 21 23 9 7 13 9 18 12 32 19 19 29 23 30 22 22 24 33 30 19 22 9 12 34 26 27 28 21 19 23
29 25 10 8 21 19 21 5 4 10 2 8 15 44 13 7 15 7 17 16 7 14 18 25 8 21 26 26 38 31 26 33 24 33 19 14 5 11 23 32 33 30 24 19 20
17 25 5 12 17 12 13 12 15 12 5 6 3 9 15 11 7 11 13 6 5 7 13 19 17 6 16 14 15 17 26 30 25 31 29 11 12 14 33 32 29 32 28 28 24
16 8 14 8 13 14 8 6 10 2 6 11 12 14 10 18 16 9 10 3 3 12 10 13 23 16 10 25 17 33 31 25 27 21 26 15 38 29 29 26 28 32 30 31 32
15 12 14 8 11 13 7 10 1 4 3 8 5 17 20 6 12 10 17 10 7 6 7 9 19 23 9 14 22 27 41 34 19 30 22 33 38 29 25 26 31 32 32 32 33
23 18 1 12 2 13 10 7 4 8 13 4 15 4 16 21 11 16 21 11 13 12 10 4 17 19 21 12 11 19 12 6 10 23 29 35 37 35 44 40 39 33 33 31 30
15 8 17 11 10 13 13 11 10 4 5 12 10 11 7 25 29 30 8 17 18 3 6 8 14 19 21 26 24 20 20 19 16 21 7 29 30 38 34 39 34 30 30 29 27
Wind_Direction_500mb
337 330 323 318 313 310 307 301 296 294 291 288 287 291 289 276 261 254 246 222 250 240 194 198 196 205 218 228 232 224 321 333 177 152 141 150 131 51 74 133 119 198 146 143 146
339 335 331 325 318 313 310 307 301 292 288 287 287 290 287 283 273 254 239 225 230 227 189 188 201 203 223 230 237 110 352 267 28 133 149 151 138 138 137 126 126 127 135 144 149
333 331 329 326 321 316 312 310 306 294 283 283 284 288 284 282 296 257 237 234 222 208 191 196 201 207 229 229 228 123 194 238 63 117 147 154 126 113 81 141 135 137 144 151 151
326 325 322 319 315 311 312 310 307 297 280 275 281 284 265 237 311 263 199 212 208 192 201 212 209 211 232 233 243 83 214 115 97 111 166 135 121 97 86 97 132 141 150 151 157
323 321 319 317 312 309 310 309 304 293 274 265 270 271 243 245 262 269 241 200 189 182 201 206 213 211 228 242 233 164 222 125 122 134 120 125 123 116 147 165 138 148 156 156 159
322 318 315 316 315 313 315 312 301 282 255 248 252 243 237 252 267 273 230 193 184 182 201 204 216 215 234 262 235 216 236 134 124 140 137 130 127 117 195 177 174 165 163 161 161
324 320 317 315 317 319 320 317 305 269 234 226 236 226 251 227 323 230 186 183 181 182 201 205 213 224 248 265 240 257 225 162 137 161 139 130 138 139 166 222 164 170 165 164 163
325 320 318 313 318 323 326 324 307 258 204 200 207 195 249 207 228 190 186 180 183 198 209 202 223 249 249 262 231 236 240 211 150 150 151 166 149 158 179 233 165 161 166 164 166
327 321 315 309 321 334 343 15 360 188 177 182 170 197 248 201 196 190 178 184 185 193 208 207 218 232 236 254 230 220 221 207 140 173 129 303 113 178 228 246 170 166 166 164 165
331 328 321 315 338 7 86 79 106 129 157 177 231 219 232 203 181 180 186 184 184 192 196 200 209 229 234 220 217 204 234 165 180 148 126 116 135 172 216 243 185 169 168 166 163
351 344 346 337 346 154 208 318 240 198 205 219 245 227 140 179 170 180 175 183 194 186 203 199 215 211 212 220 241 219 213 195 308 132 112 140 152 182 207 239 183 172 173 167 165
360 356 18 102 46 179 248 247 7 327 259 233 237 240 161 160 166 187 182 187 199 208 212 181 223 225 230 221 236 255 276 149 125 103 109 132 133 163 214 229 221 181 178 167 167
4 7 50 117 89 296 335 306 310 311 265 204 212 221 184 190 199 188 190 204 193 217 209 224 216 234 219 236 226 240 228 150 169 110 118 120 123 146 219 235 243 192 184 165 161
4 14 117 149 281 257 257 299 313 303 272 156 193 214 197 206 233 188 198 206 194 218 222 232 242 197 232 241 224 242 232 146 166 134 154 177 146 189 192 209 235 160 200 180 170
354 4 167 246 306 304 313 304 302 261 273 142 175 161 185 204 196 176 198 220 247 221 222 219 230 211 222 225 213 242 240 178 212 193 124 194 154 208 246 291 181 186 171 183 180
333 340 317 301 285 306 319 297 256 237 288 135 136 193 189 221 173 164 193 224 259 245 234 242 218 228 219 232 227 238 299 183 253 213 188 195 208 165 122 318 139 159 168 178 181
317 315 310 278 277 330 315 263 225 263 277 140 179 189 213 204 181 158 195 202 227 221 216 225 234 210 217 217 230 218 247 205 209 226 248 166 207 141 153 99 34 55 56 61 201
304 305 292 308 275 306 291 261 29 295 345 202 227 183 207 213 180 172 201 214 228 229 199 210 216 192 207 241 224 202 235 208 203 223 228 168 136 126 123 109 91 32 58 40 148
295 289 269 292 298 285 268 72 237 205 269 275 239 217 205 12 308 179 202 221 217 238 31 209 223 187 180 231 281 190 233 249 231 222 226 113 99 128 126 114 123 106 65 42 3
287 272 251 245 251 263 314 328 224 264 293 276 261 201 147 171 237 217 190 53 325 66 281 290 293 153 171 276 278 271 257 241 253 271 253 138 155 150 139 124 101 69 54 28 21
280 267 156 251 245 236 118 247 85 59 317 1 355 316 128 259 255 196 24 152 269 331 247 287 162 204 191 206 231 223 252 257 265 256 238 169 96 90 131 119 103 89 66 39 28
282 267 155 247 243 252 127 0 332 22 321 329 118 269 77 356 340 344 182 43 1 311 297 295 319 188 212 210 219 256 251 233 245 251 273 91 78 64 109 111 103 99 86 65 47
271 263 71 216 262 257 81 85 4 347 347 340 347 297 147 240 128 115 289 36 338 15 7 347 242 151 142 185 235 242 243 271 269 262 273 178 137 136 107 104 112 108 96 81 68
285 245 156 239 314 346 152 166 141 17 337 313 336 296 251 221 186 201 125 83 42 36 335 311 293 360 351 331 303 212 240 242 265 276 276 68 137 141 129 121 125 113 104 93 80
267 5 7 24 66 35 350 14 246 171 221 294 203 278 274 261 257 224 176 134 228 74 298 299 296 302 213 264 319 325 210 234 246 274 336 137 143 143 141 149 135 122 112 100 88
315 348 155 56 55 279 147 55 63 122 326 68 262 269 293 292 49 32 311 187 205 168 255 296 294 306 299 268 267 313 355 17 245 262 113 119 136 140 139 137 142 136 124 111 99
8 343 300 132 209 258 58 86 83 110 21 5 356 281 240 22 359 337 242 5 54 1 260 239 286 274 266 278 266 245 250 254 232 262 160 150 154 145 145 143 141 134 126 114 106
Wind_Speed_850mb
27 27 27 27 27 27 27 23 20 21 24 23 19 19 22 22 22 23 31 24 25 16 31 21 28 30 31 33 38 34 2 7 7 17 25 14 8 8 12 24 21 11 61 67 60
26 25 26 26 25 27 26 25 23 19 22 22 20 18 19 22 25 36 29 27 35 23 33 33 34 34 35 37 39 12 8 10 12 15 31 28 25 14 9 23 22 56 61 65 59
29 26 23 21 23 25 25 26 23 20 19 19 18 17 14 15 20 17 28 24 30 30 32 30 27 32 38 37 34 26 11 4 16 26 48 40 30 11 12 9 37 64 69 63 57
32 29 25 22 20 21 25 26 25 21 17 14 16 15 11 9 5 1 8 30 26 31 33 32 35 35 33 34 33 11 17 9 36 26 40 34 32 26 19 5 54 61 61 61 54
32 31 28 25 23 21 23 27 24 18 15 12 13 11 9 14 30 13 14 22 31 40 35 37 37 35 31 31 26 11 8 34 32 40 35 31 27 25 13 17 28 54 56 56 50
30 29 27 25 24 24 25 26 22 13 11 10 11 10 9 21 3 16 13 23 35 42 32 37 29 33 37 36 28 16 37 29 42 37 40 34 22 11 6 16 36 51 56 53 48
31 30 27 24 23 23 23 20 15 10 8 9 10 10 15 30 4 6 18 27 35 36 32 32 29 31 17 32 30 19 23 26 47 37 42 44 22 14 14 17 55 60 59 53 48
29 28 25 24 20 18 16 14 10 6 7 9 9 10 17 16 14 15 19 26 32 28 28 27 25 25 36 28 25 36 27 21 50 42 31 30 22 4 17 23 53 63 60 54 48
31 26 22 19 14 12 9 9 3 5 6 10 10 12 20 15 23 22 26 30 32 28 24 23 18 29 32 31 23 25 30 28 29 41 34 2 27 16 24 30 48 65 59 54 48
28 21 18 14 6 5 5 8 11 14 9 13 4 16 33 22 28 28 25 27 30 28 24 18 20 25 30 26 28 35 41 35 31 35 34 30 23 23 34 24 42 59 58 54 48
24 18 11 8 5 5 4 9 5 6 25 23 12 25 15 27 31 28 30 30 31 29 26 34 23 30 39 40 41 41 35 22 14 45 36 26 31 30 33 33 35 52 57 55 54
24 15 7 6 5 4 8 13 11 13 13 41 15 27 17 40 31 30 30 30 34 31 33 22 33 33 40 36 46 46 25 21 26 45 40 32 22 16 20 25 38 50 52 51 52
25 15 6 9 3 6 11 21 11 12 16 33 28 26 15 22 30 38 39 42 32 34 35 35 27 38 34 38 43 43 34 24 23 33 37 32 12 19 16 45 57 42 53 49 51
23 12 7 8 11 16 21 10 12 11 13 31 26 32 31 33 34 38 40 41 23 33 37 37 34 35 33 34 36 33 33 38 44 36 17 26 9 30 38 52 34 51 47 51 46
18 12 5 7 8 17 11 13 16 8 11 24 28 16 24 39 30 31 37 46 34 31 29 36 29 32 34 36 25 35 22 29 38 26 40 39 12 9 5 26 38 56 47 45 54
12 13 6 5 14 9 17 15 9 13 2 12 20 18 29 39 23 40 35 46 34 29 37 30 37 23 23 29 24 42 24 18 12 18 23 42 28 16 7 15 18 50 48 43 43
15 16 15 13 14 11 11 13 13 12 3 13 25 26 30 31 26 28 32 30 26 22 32 33 35 24 30 34 35 30 26 15 20 18 24 41 22 13 28 19 22 27 23 9 24
21 24 22 12 14 14 11 21 13 36 20 26 30 31 29 33 25 25 25 28 37 35 22 26 28 35 26 28 20 25 37 20 29 25 24 36 23 19 38 35 32 16 11 13 24
26 20 21 11 9 9 21 11 11 20 41 9 15 18 23 27 26 28 40 21 35 18 9 27 30 30 13 32 2 32 35 37 30 39 26 18 29 25 37 32 30 15 16 18 17
28 27 42 10 12 12 9 8 27 18 12 16 21 12 12 27 38 18 16 11 21 11 3 26 22 30 20 11 19 29 18 33 27 29 29 22 27 26 32 28 25 25 24 23 26
33 21 24 5 10 21 9 14 7 7 11 13 24 14 12 21 23 9 7 13 9 18 12 32 19 19 29 23 30 22 22 24 33 30 19 22 9 12 34 26 27 28 21 19 23
29 25 10 8 21 19 21 5 4 10 2 8 15 44 13 7 15 7 17 16 7 14 18 25 8 21 26 26 38 31 26 33 24 33 19 14 5 11 23 32 33 30 24 19 20
17 25 5 12 17 12 13 12 15 12 5 6 3 9 15 11 7 11 13 6 5 7 13 19 17 6 16 14 15 17 26 30 25 31 29 11 12 14 33 32 29 32 28 28 24
16 8 14 8 13 14 8 6 10 2 6 11 12 14 10 18 16 9 10 3 3 12 10 13 23 16 10 25 17 33 31 25 27 21 26 15 38 29 29 26 28 32 30 31 32
15 12 14 8 11 13 7 10 1 4 3 8 5 17 20 6 12 10 17 10 7 6 7 9 19 23 9 14 22 27 41 34 19 30 22 33 38 29 25 26 31 32 32 32 33
23 18 1 12 2 13 10 7 4 8 13 4 15 4 16 21 11 16 21 11 13 12 10 4 17 19 21 12 11 19 12 6 10 23 29 35 37 35 44 40 39 33 33 31 30
15 8 17 11 10 13 13 11 10 4 5 12 10 11 7 25 29 30 8 17 18 3 6 8 14 19 21 26 24 20 20 19 16 21 7 29 30 38 34 39 34 30 30 29 27
Wind_Direction_850mb
337 330 323 318 313 310 307 301 296 294 291 288 287 291 289 276 261 254 246 222 250 240 194 198 196 205 218 228 232 224 321 333 177 152 141 150 131 51 74 133 119 198 146 143 146
339 335 331 325 318 313 310 307 301 292 288 287 287 290 287 283 273 254 239 225 230 227 189 188 201 203 223 230 237 110 352 267 28 133 149 151 138 138 137 126 126 127 135 144 149
333 331 329 326 321 316 312 310 306 294 283 283 284 288 284 282 296 257 237 234 222 208 191 196 201 207 229 229 228 123 194 238 63 117 147 154 126 113 81 141 135 137 144 151 151
326 325 322 319 315 311 312 310 307 297 280 275 281 284 265 237 311 263 199 212 208 192 201 212 209 211 232 233 243 83 214 115 97 111 166 135 121 97 86 97 132 141 150 151 157
323 321 319 317 312 309 310 309 304 293 274 265 270 271 243 245 262 269 241 200 189 182 201 206 213 211 228 242 233 164 222 125 122 134 120 125 123 116 147 165 138 148 156 156 159
322 318 315 316 315 313 315 312 301 282 255 248 252 243 237 252 267 273 230 193 184 182 201 204 216 215 234 262 235 216 236 134 124 140 137 130 127 117 195 177 174 165 163 161 161
324 320 317 315 317 319 320 317 305 269 234 226 236 226 251 227 323 230 186 183 181 182 201 205 213 224 248 265 240 257 225 162 137 161 139 130 138 139 166 222 164 170 165 164 163
325 320 318 313 318 323 326 324 307 258 204 200 207 195 249 207 228 190 186 180 183 198 209 202 223 249 249 262 231 236 240 211 150 150 151 166 149 158 179 233 165 161 166 164 166
327 321 315 309 321 334 343 15 360 188 177 182 170 197 248 201 196 190 178 184 185 193 208 207 218 232 236 254 230 220 221 207 140 173 129 303 113 178 228 246 170 166 166 164 165
331 328 321 315 338 7 86 79 106 129 157 177 231 219 232 203 181 180 186 184 184 192 196 200 209 229 234 220 217 204 234 165 180 148 126 116 135 172 216 243 185 169 168 166 163
351 344 346 337 346 154 208 318 240 198 205 219 245 227 140 179 170 180 175 183 194 186 203 199 215 211 212 220 241 219 213 195 308 132 112 140 152 182 207 239 183 172 173 167 165
360 356 18 102 46 179 248 247 7 327 259 233 237 240 161 160 166 187 182 187 199 208 212 181 223 225 230 221 236 255 276 149 125 103 109 132 133 163 214 229 221 181 178 167 167
4 7 50 117 89 296 335 306 310 311 265 204 212 221 184 190 199 188 190 204 193 217 209 224 216 234 219 236 226 240 228 150 169 110 118 120 123 146 219 235 243 192 184 165 161
4 14 117 149 281 257 257 299 313 303 272 156 193 214 197 206 233 188 198 206 194 218 222 232 242 197 232 241 224 242 232 146 166 134 154 177 146 189 192 209 235 160 200 180 170
354 4 167 246 306 304 313 304 302 261 273 142 175 161 185 204 196 176 198 220 247 221 222 219 230 211 222 225 213 242 240 178 212 193 124 194 154 208 246 291 181 186 171 183 180
333 340 317 301 285 306 319 297 256 237 288 135 136 193 189 221 173 164 193 224 259 245 234 242 218 228 219 232 227 238 299 183 253 213 188 195 208 165 122 318 139 159 168 178 181
317 315 310 278 277 330 315 263 225 263 277 140 179 189 213 204 181 158 195 202 227 221 216 225 234 210 217 217 230 218 247 205 209 226 248 166 207 141 153 99 34 55 56 61 201
304 305 292 308 275 306 291 261 29 295 345 202 227 183 207 213 180 172 201 214 228 229 199 210 216 192 207 241 224 202 235 208 203 223 228 168 136 126 123 109 91 32 58 40 148
295 289 269 292 298 285 268 72 237 205 269 275 239 217 205 12 308 179 202 221 217 238 31 209 223 187 180 231 281 190 233 249 231 222 226 113 99 128 126 114 123 106 65 42 3
287 272 251 245 251 263 314 328 224 264 293 276 261 201 147 171 237 217 190 53 325 66 281 290 293 153 171 276 278 271 257 241 253 271 253 138 155 150 139 124 101 69 54 28 21
280 267 156 251 245 236 118 247 85 59 317 1 355 316 128 259 255 196 24 152 269 331 247 287 162 204 191 206 231 223 252 257 265 256 238 169 96 90 131 119 103 89 66 39 28
282 267 155 247 243 252 127 0 332 22 321 329 118 269 77 356 340 344 182 43 1 311 297 295 319 188 212 210 219 256 251 233 245 251 273 91 78 64 109 111 103 99 86 65 47
271 263 71 216 262 257 81 85 4 347 347 340 347 297 147 240 128 115 289 36 338 15 7 347 242 151 142 185 235 242 243 271 269 262 273 178 137 136 107 104 112 108 96 81 68
285 245 156 239 314 346 152 166 141 17 337 313 336 296 251 221 186 201 125 83 42 36 335 311 293 360 351 331 303 212 240 242 265 276 276 68 137 141 129 121 125 113 104 93 80
267 5 7 24 66 35 350 14 246 171 221 294 203 278 274 261 257 224 176 134 228 74 298 299 296 302 213 264 319 325 210 234 246 274 336 137 143 143 141 149 135 122 112 100 88
315 348 155 56 55 279 147 55 63 122 326 68 262 269 293 292 49 32 311 187 205 168 255 296 294 306 299 268 267 313 355 17 245 262 113 119 136 140 139 137 142 136 124 111 99
8 343 300 132 209 258 58 86 83 110 21 5 356 281 240 22 359 337 242 5 54 1 260 239 286 274 266 278 266 245 250 254 232 262 160 150 154 145 145 143 141 134 126 114 106